When you browse on this site, cookies collect data to enhance your experience and personalize the content and advertising you see.
Visit our Privacy Policy to learn more. By continuing to use the site, you agree to this use of cookies and data.
  • In Romania
  • List of Countries
  • For 7 days
  • Water Temperature
  • Weather Map
  • Weather Widgets
  • user-avatar
    Login

    Hourly Weather Manchester

    Today, 25 May, Monday

    Time Temperature Precipitation Wind Pressure Humidity
    00:00 +11°C° 0 mm 1 mps 769 mmHg 82%
    01:00 +11°C° 0 mm 1 mps 769 mmHg 82%
    02:00 +10°C° 0 mm 1 mps 770 mmHg 83%
    03:00 +10°C° 0 mm 1 mps 770 mmHg 83%
    04:00 +11°C° 0 mm 1 mps 770 mmHg 81%
    05:00 +11°C° 0 mm 1 mps 770 mmHg 78%
    06:00 +12°C° 0 mm 1 mps 770 mmHg 79%
    07:00 +14°C° 0 mm 2 mps 770 mmHg 71%
    08:00 +15°C° 0 mm 2 mps 770 mmHg 63%
    09:00 +17°C° 0 mm 3 mps 770 mmHg 54%
    10:00 +18°C° 0 mm 3 mps 770 mmHg 51%
    11:00 +19°C° 0 mm 3 mps 770 mmHg 47%
    12:00 +20°C° 0 mm 3 mps 770 mmHg 43%
    13:00 +21°C° 0 mm 3 mps 769 mmHg 44%
    14:00 +21°C° 0 mm 4 mps 769 mmHg 44%
    15:00 +21°C° 0 mm 4 mps 769 mmHg 45%
    16:00 +20°C° 0 mm 4 mps 769 mmHg 48%
    17:00 +19°C° 0 mm 3 mps 769 mmHg 52%
    18:00 +18°C° 0 mm 3 mps 769 mmHg 56%
    19:00 +17°C° 0 mm 2 mps 770 mmHg 58%
    20:00 +15°C° 0 mm 2 mps 770 mmHg 61%
    21:00 +13°C° 0 mm 2 mps 770 mmHg 64%
    22:00 +13°C° 0 mm 2 mps 770 mmHg 63%
    23:00 +14°C° 0 mm 1 mps 770 mmHg 61%

    Tomorrow, 26 May, Tuesday

    Time Temperature Precipitation Wind Pressure Humidity
    00:00 +14°C° 0 mm 1 mps 770 mmHg 60%
    01:00 +13°C° 0 mm 1 mps 770 mmHg 63%
    02:00 +13°C° 0 mm 1 mps 770 mmHg 66%
    03:00 +12°C° 0 mm 1 mps 770 mmHg 68%
    04:00 +12°C° 0 mm 1 mps 771 mmHg 68%
    05:00 +13°C° 0 mm 1 mps 771 mmHg 68%
    06:00 +13°C° 0 mm 2 mps 771 mmHg 68%
    07:00 +14°C° 0 mm 2 mps 771 mmHg 69%
    08:00 +15°C° 0 mm 2 mps 771 mmHg 70%
    09:00 +16°C° 0 mm 3 mps 771 mmHg 71%
    10:00 +17°C° 0 mm 3 mps 771 mmHg 69%
    11:00 +18°C° 0 mm 3 mps 771 mmHg 68%
    12:00 +19°C° 0 mm 4 mps 771 mmHg 67%
    13:00 +19°C° 0 mm 4 mps 771 mmHg 66%
    14:00 +19°C° 0 mm 4 mps 771 mmHg 65%
    15:00 +19°C° 0 mm 4 mps 771 mmHg 63%
    16:00 +18°C° 0 mm 4 mps 771 mmHg 65%
    17:00 +18°C° 0 mm 4 mps 771 mmHg 66%
    18:00 +17°C° 0 mm 4 mps 771 mmHg 68%
    19:00 +14°C° 0 mm 3 mps 771 mmHg 68%
    20:00 +13°C° 0 mm 3 mps 772 mmHg 69%
    21:00 +12°C° 0 mm 2 mps 772 mmHg 70%
    22:00 +12°C° 0 mm 2 mps 772 mmHg 71%
    23:00 +11°C° 0 mm 1 mps 772 mmHg 72%

    Day after tomorrow, 27 May, Wednesday

    Time Temperature Precipitation Wind Pressure Humidity
    00:00 +10°C° 0 mm 1 mps 772 mmHg 73%
    01:00 +10°C° 0 mm 1 mps 772 mmHg 74%
    02:00 +10°C° 0 mm 1 mps 772 mmHg 75%
    03:00 +10°C° 0 mm 1 mps 772 mmHg 76%
    04:00 +11°C° 0 mm 1 mps 772 mmHg 74%
    05:00 +12°C° 0 mm 1 mps 772 mmHg 72%
    06:00 +12°C° 0 mm 1 mps 772 mmHg 69%
    07:00 +14°C° 0 mm 1 mps 773 mmHg 62%
    08:00 +16°C° 0 mm 1 mps 773 mmHg 55%
    09:00 +18°C° 0 mm 1 mps 773 mmHg 49%
    10:00 +19°C° 0 mm 1 mps 773 mmHg 46%
    11:00 +20°C° 0 mm 1 mps 772 mmHg 43%
    12:00 +21°C° 0 mm 1 mps 772 mmHg 40%
    13:00 +21°C° 0 mm 2 mps 772 mmHg 40%
    14:00 +21°C° 0 mm 2 mps 772 mmHg 41%
    15:00 +21°C° 0 mm 3 mps 772 mmHg 42%
    16:00 +20°C° 0 mm 3 mps 772 mmHg 46%
    17:00 +19°C° 0 mm 3 mps 772 mmHg 51%
    18:00 +18°C° 0 mm 3 mps 772 mmHg 55%
    19:00 +17°C° 0 mm 2 mps 772 mmHg 59%
    20:00 +15°C° 0 mm 2 mps 772 mmHg 62%
    21:00 +14°C° 0 mm 1 mps 772 mmHg 66%
    22:00 +13°C° 0 mm 1 mps 772 mmHg 69%
    23:00 +13°C° 0 mm 1 mps 772 mmHg 72%

    28 May, Thursday

    Time Temperature Precipitation Wind Pressure Humidity
    00:00 +12°C° 0 mm 1 mps 772 mmHg 75%
    01:00 +12°C° 0 mm 1 mps 772 mmHg 77%
    02:00 +12°C° 0 mm 1 mps 772 mmHg 79%
    03:00 +11°C° 0 mm 1 mps 771 mmHg 80%
    04:00 +12°C° 0 mm 1 mps 771 mmHg 79%
    05:00 +13°C° 0 mm 1 mps 771 mmHg 78%
    06:00 +14°C° 0 mm 1 mps 771 mmHg 77%
    07:00 +15°C° 0 mm 1 mps 770 mmHg 69%
    08:00 +18°C° 0 mm 1 mps 770 mmHg 60%
    09:00 +20°C° 0 mm 1 mps 770 mmHg 52%
    10:00 +21°C° 0 mm 1 mps 770 mmHg 50%
    11:00 +22°C° 0 mm 1 mps 769 mmHg 48%
    12:00 +24°C° 0 mm 1 mps 769 mmHg 46%
    13:00 +24°C° 0 mm 1 mps 769 mmHg 45%
    14:00 +25°C° 0 mm 1 mps 768 mmHg 45%
    15:00 +25°C° 0 mm 1 mps 768 mmHg 45%
    16:00 +25°C° 0 mm 1 mps 768 mmHg 49%
    17:00 +24°C° 0 mm 1 mps 767 mmHg 53%
    18:00 +24°C° 0 mm 1 mps 767 mmHg 57%
    19:00 +22°C° 0 mm 1 mps 767 mmHg 64%
    20:00 +20°C° 0 mm 1 mps 767 mmHg 70%
    21:00 +19°C° 0 mm 1 mps 767 mmHg 76%
    22:00 +18°C° 0 mm 1 mps 767 mmHg 78%
    23:00 +16°C° 0 mm 1 mps 767 mmHg 79%

    29 May, Friday

    Time Temperature Precipitation Wind Pressure Humidity
    00:00 +16°C° 0 mm 1 mps 767 mmHg 81%
    01:00 +15°C° 0 mm 1 mps 767 mmHg 82%
    02:00 +15°C° 0 mm 1 mps 767 mmHg 82%
    03:00 +14°C° 0 mm 1 mps 767 mmHg 83%
    04:00 +15°C° 0 mm 1 mps 766 mmHg 81%
    05:00 +16°C° 0 mm 1 mps 766 mmHg 79%
    06:00 +16°C° 0 mm 1 mps 766 mmHg 77%
    07:00 +19°C° 0 mm 1 mps 766 mmHg 72%
    08:00 +20°C° 0 mm 1 mps 766 mmHg 67%
    09:00 +22°C° 0 mm 1 mps 766 mmHg 62%
    10:00 +21°C° 0.1 mm 2 mps 765 mmHg 61%
    11:00 +21°C° 0.1 mm 2 mps 765 mmHg 61%
    12:00 +23°C° 0.1 mm 2 mps 765 mmHg 60%
    13:00 +23°C° 0.1 mm 2 mps 765 mmHg 61%
    14:00 +23°C° 0.1 mm 2 mps 764 mmHg 61%
    15:00 +23°C° 0.1 mm 2 mps 764 mmHg 61%
    16:00 +23°C° 0.1 mm 2 mps 764 mmHg 63%
    17:00 +21°C° 0.1 mm 2 mps 764 mmHg 66%
    18:00 +21°C° 0.1 mm 2 mps 763 mmHg 68%
    19:00 +19°C° 0 mm 2 mps 763 mmHg 72%
    20:00 +18°C° 0 mm 2 mps 764 mmHg 77%
    21:00 +17°C° 0 mm 2 mps 764 mmHg 81%
    22:00 +16°C° 0 mm 2 mps 764 mmHg 82%
    23:00 +16°C° 0 mm 2 mps 764 mmHg 83%

    30 May, Saturday

    Time Temperature Precipitation Wind Pressure Humidity
    00:00 +15°C° 0 mm 1 mps 764 mmHg 84%
    01:00 +15°C° 0 mm 1 mps 764 mmHg 84%
    02:00 +15°C° 0 mm 1 mps 764 mmHg 84%
    03:00 +15°C° 0 mm 1 mps 764 mmHg 84%
    04:00 +15°C° 0 mm 1 mps 764 mmHg 82%
    05:00 +15°C° 0 mm 2 mps 764 mmHg 80%
    06:00 +15°C° 0 mm 2 mps 764 mmHg 77%
    07:00 +16°C° 0 mm 2 mps 764 mmHg 72%
    08:00 +17°C° 0 mm 2 mps 764 mmHg 67%
    09:00 +18°C° 0 mm 3 mps 764 mmHg 61%
    10:00 +19°C° 0 mm 3 mps 764 mmHg 59%
    11:00 +19°C° 0 mm 3 mps 764 mmHg 56%
    12:00 +20°C° 0 mm 4 mps 764 mmHg 53%
    13:00 +20°C° 0 mm 3 mps 763 mmHg 53%
    14:00 +20°C° 0 mm 3 mps 763 mmHg 53%
    15:00 +21°C° 0 mm 3 mps 763 mmHg 53%
    16:00 +20°C° 0 mm 3 mps 763 mmHg 56%
    17:00 +20°C° 0 mm 3 mps 763 mmHg 59%
    18:00 +19°C° 0 mm 3 mps 762 mmHg 62%
    19:00 +18°C° 0 mm 3 mps 763 mmHg 67%
    20:00 +17°C° 0 mm 3 mps 763 mmHg 72%
    21:00 +14°C° 0 mm 3 mps 763 mmHg 77%
    22:00 +14°C° 0 mm 3 mps 763 mmHg 79%
    23:00 +13°C° 0 mm 3 mps 763 mmHg 82%
    Show more